Location: *
(42.0175°N, 9.4056°E)
Time: 10:40:32
(UTC+00:00)

Mayak - Pass Details

Date: 25 August 2019
Orbit: 581 x 603 km, 97.6° (Epoch: 16 September)

Event Time Altitude Azimuth Distance (km) Brightness Sun altitude
Rises 23:05:16 0° 356° (N) 2,830 3.2 -37.2°
Reaches altitude 10° 23:07:55 10° 339° (NNW) 1,920 2.1 -37.3°
Enters shadow 23:08:21 12° 334° (NNW) 1,799 1.9 -37.3°
